#timestamp,LO_Frequency,Hit,StdDev 
1656093615.1,286047000.8,N
1656093616.0,286047000.8,N
1656093635.8,286046998.4,N
1656093655.7,286046998.7,N
1656093675.5,286046999.0,N
1656093695.3,286046999.4,N
1656093715.2,286046996.7,N
1656093735.9,286046999.1,N
1656093755.7,286046996.5,N
1656093775.6,286046997.1,N
1656093795.4,286046997.2,N
1656093815.2,286046995.0,N
1656093835.1,286046995.4,N
1656093836.0,286046995.4,N
1656093855.8,286046995.2,N
1656093875.7,286046997.8,N
1656093895.5,286046997.7,N
1656093915.3,286046995.0,N
1656093935.2,286046993.7,Y
1656093955.0,286046997.2,P
1656093955.9,286046997.2,P
1656093975.7,286046996.7,P
1656093995.6,286046998.0,Y
1656094015.4,286047002.7,P
1656094035.3,286047002.7,N
1656094055.1,286047002.8,N
1656094056.0,286047002.8,N
1656094075.8,286046999.7,N
1656094095.7,286047002.8,N
1656094115.5,286047002.6,N
1656094135.3,286047002.3,N
1656094155.2,286047003.5,N
1656094175.0,286047003.7,N
1656094175.9,286047003.7,N
1656094195.8,286047003.0,N
1656094215.6,286047005.6,Y
1656094235.4,286047001.5,P
1656094255.3,286047001.3,P
1656094275.1,286047003.4,P
1656094295.9,286047003.4,Y
1656094315.7,286047004.0,P
1656094335.5,286047003.5,P
1656094355.4,286047003.9,P
1656094375.2,286047001.7,N
1656094395.0,286047001.7,N
1656094396.0,286047001.7,N
1656094415.8,286047004.0,Y
1656094435.6,286047002.3,P
1656094455.5,286047002.0,P
1656094475.3,286047002.1,P
1656094495.1,286047001.8,Y
1656094515.9,286047000.3,P
1656094535.7,286047002.2,N
1656094555.6,286047004.3,P
1656094575.4,286047001.3,N
1656094595.2,286047004.4,Y
1656094615.1,286047002.6,P
1656094616.0,286047002.6,P
1656094635.8,286047001.9,P
1656094655.7,286047001.3,Y
1656094675.5,286047000.4,P
1656094695.3,286047000.5,N
1656094715.2,286047000.4,N
1656094735.0,286047000.1,N
1656094735.9,286047000.1,N
1656094755.8,286047000.1,N
1656094775.6,286047002.4,Y
1656094795.4,286047002.8,P
1656094815.3,286047002.1,N
1656094835.1,286047003.2,P
1656094855.9,286047005.9,Y
1656094875.7,286047004.0,P
1656094895.5,286047001.4,N
1656094915.4,286047002.1,N
1656094935.2,286047001.8,N
1656094955.0,286047001.6,N
1656094956.0,286047001.6,N
1656094975.8,286047003.8,Y
1656094995.6,286047002.4,P
1656095015.5,286047002.5,P
1656095035.3,286047001.9,P
1656095055.1,286047004.4,Y
1656095075.9,286047000.3,P
1656095095.7,286047000.0,N
1656095115.6,286047002.8,N
1656095135.4,286047001.4,N
1656095155.2,286047001.6,N
1656095175.1,286047001.6,N
1656095176.0,286047001.6,N
1656095195.8,286047004.3,Y
1656095215.7,286047002.6,P
1656095235.5,286047002.0,P
1656095255.3,286046998.2,P
1656095275.2,286046999.5,N
1656095295.0,286046997.9,N
1656095295.9,286046997.9,N
1656095315.7,286046997.8,N
1656095335.6,286046995.7,N
1656095355.4,286046995.3,N
1656095375.3,286046995.1,N
1656095395.1,286046994.9,N
1656095396.0,286046994.9,N
1656095415.8,286046997.9,N
1656095435.7,286046997.1,N
1656095455.5,286046996.7,N
1656095475.3,286046997.4,N
1656095495.2,286046997.3,N
1656095515.0,286046997.2,N
1656095515.9,286046997.2,N
1656095535.8,286046999.5,N
1656095555.6,286046998.7,N
1656095575.4,286046998.3,N
1656095595.3,286046998.5,N
1656095615.1,286046998.7,N
1656095616.0,286046998.7,N
1656095635.8,286047001.2,N
1656095655.7,286046999.9,N
1656095675.5,286047002.2,N
1656095695.3,286047001.4,N
1656095715.2,286047001.5,N
1656095735.0,286047001.5,N
1656095735.9,286047001.5,N
1656095755.8,286047004.0,N
1656095775.6,286047003.7,N
1656095795.4,286047003.4,N
1656095815.3,286047005.9,N
1656095835.1,286047006.0,N
1656095855.8,286047004.7,N
1656095875.7,286047006.8,N
1656095895.5,286047008.5,N
1656095915.4,286047009.6,N
1656095935.2,286047011.9,Y
1656095955.0,286047013.6,P
1656095955.9,286047013.6,N
1656095975.8,286047012.9,N
1656095995.6,286047012.6,N
1656096015.4,286047013.8,N
1656096035.3,286047015.0,Y
1656096055.1,286047003.9,P
1656096075.9,286047004.4,N
1656096095.7,286047004.2,N
1656096115.5,286047001.3,N
1656096135.4,286047000.2,N
1656096155.2,286047000.8,N
1656096175.0,286047001.0,N
1656096175.9,286047001.0,N
1656096195.8,286047001.5,N
1656096215.6,286047003.1,N
1656096235.5,286047005.3,N
1656096255.3,286047004.5,N
1656096275.1,286047006.9,N
1656096295.9,286047009.0,Y
1656096315.7,286047003.6,P
1656096335.5,286047002.8,P
1656096355.4,286046999.9,N
1656096375.2,286047004.0,N
1656096395.0,286047005.4,Y
1656096396.0,286047005.4,P
1656096415.8,286047003.5,N
1656096435.6,286047005.8,P
1656096455.5,286047005.6,Y
1656096475.3,286047001.2,P
1656096495.1,286047000.4,N
1656096515.9,286047000.0,N
1656096535.7,286046999.8,N
1656096555.5,286047002.1,N
1656096575.4,286047001.5,N
1656096595.2,286047001.7,N
1656096615.1,286047001.3,N
1656096616.0,286047001.3,N
1656096635.8,286047003.7,Y
1656096655.6,286047004.1,P
1656096675.5,286047003.8,N
1656096695.3,286047003.1,N
1656096715.1,286047003.2,N
1656096735.9,286047003.6,Y
1656096755.7,286047000.3,P
1656096775.6,286047000.1,N
1656096795.4,286047002.1,N
1656096815.2,286047004.0,Y
1656096835.1,286047002.6,P
1656096836.0,286047002.6,P
1656096855.8,286047002.2,P
1656096875.7,286047002.1,Y
1656096895.5,286047000.5,P
1656096915.3,286047000.2,N
1656096935.2,286046999.8,N
1656096955.0,286047002.3,N
1656096955.9,286047002.3,N
1656096975.7,286047002.2,N
1656096995.6,286047002.6,N
1656097015.4,286047001.3,N
1656097035.3,286047001.4,N
1656097055.1,286047001.8,N
1656097056.0,286047001.8,N
1656097075.8,286047001.6,N
1656097095.7,286047001.8,N
1656097115.5,286047001.4,N
1656097135.3,286047000.5,N
1656097155.2,286046998.9,N
1656097175.0,286046998.5,N
1656097175.9,286046998.5,N
1656097195.8,286047000.4,N
